Location: Unspecified
(0.0000°N, 0.0000°E)
Time: 22:10:48
(UTC+00:00)

STARLINK-32440 - Visible Passes

Search period start: 12 January 2025 00:00
Search period end: 22 January 2025 00:00
Orbit: 446 x 448 km, 53.2° (Epoch: 12 January)

Date Brightness Start Highest point End Pass type
(mag) Time Alt. Az. Time Alt. Az. Time Alt. Az.
17 Jan 5.0 19:56:12 10° NW 19:58:02 27° WNW 19:58:02 27° WNW visible
18 Jan 3.1 19:17:44 10° NNW 19:21:14 88° NE 19:24:46 10° SE visible
19 Jan 3.4 18:39:29 10° NNW 18:42:52 47° NE 18:46:17 10° SE visible
20 Jan 7.0 19:41:29 10° WSW 19:41:37 10° SW 19:41:46 10° SW visible
21 Jan 6.3 05:42:38 10° S 05:45:24 21° SE 05:48:09 10° ENE visible
21 Jan 6.4 19:00:56 10° W 19:03:15 17° SW 19:05:35 10° SSW visible
